Lid_Strength_Index
12 11 11 11 11 10 13 14 14 12 13 12 9 8 8 7 6 6 6 6 6 6 6 5 4 3 3 5 5 2 2 2 2 2 1 1 1 1 1 1 1 1 2 1
12 10 10 11 10 10 10 10 12 12 12 10 8 7 7 7 6 7 7 6 5 4 4 4 4 3 3 3 4 2 2 2 2 2 3 4 2 2 2 2 1 1 1 1
14 11 11 12 11 10 10 11 10 13 11 8 8 8 8 7 7 7 6 6 5 5 4 4 4 4 4 3 2 2 2 3 3 3 3 3 3 3 2 2 2 2 2 1
14 13 16 11 9 8 9 9 8 8 8 8 8 7 7 6 6 6 5 5 4 4 4 3 3 2 2 3 3 4 4 5 5 5 4 2 2 2 3 3 3 3 3 4
14 15 12 10 9 9 10 10 8 9 8 7 7 6 7 5 5 5 4 5 4 3 3 3 3 2 3 3 3 3 3 3 2 2 4 3 2 3 4 5 5 5 5 4
14 15 15 11 8 7 8 13 7 7 8 7 8 11 9 5 4 4 4 4 3 3 3 4 3 2 3 3 3 3 3 3 3 3 3 4 3 2 3 5 5 3 2 3
14 15 12 9 7 7 13 12 7 7 8 8 9 8 7 5 4 4 4 3 3 3 3 3 2 3 5 4 3 2 2 2 3 4 2 2 2 2 2 5 3 3 3 2
14 15 15 7 8 10 8 8 7 7 7 7 7 6 6 5 5 4 4 3 4 3 4 3 2 3 3 4 2 2 2 3 3 3 2 2 2 2 3 3 4 4 4 4
11 11 8 8 8 7 8 8 8 7 7 7 7 7 6 6 5 5 5 5 4 4 3 3 3 4 4 3 2 2 2 2 3 3 2 2 2 2 3 3 3 3 3 3
11 9 8 7 6 6 6 6 6 6 6 6 6 6 6 6 6 6 5 5 4 4 4 4 3 2 2 3 3 2 3 3 4 5 6 2 2 2 2 3 3 3 4 3
10 9 7 6 6 5 5 5 5 5 5 5 6 7 7 7 6 6 5 5 5 5 4 4 3 3 2 2 3 3 3 3 5 5 5 3 2 2 2 2 2 3 3 2
11 8 8 7 6 5 5 6 6 5 6 5 6 6 6 7 6 6 6 5 5 5 5 4 4 3 3 2 2 2 3 3 3 2 2 3 2 2 6 7 7 8 9 6
7 7 6 5 5 5 5 5 5 5 6 6 6 6 7 7 6 5 4 4 4 4 4 4 4 4 3 4 3 3 3 3 2 3 3 3 3 4 5 6 7 8 9 9
6 6 7 6 6 5 5 5 5 6 6 5 6 6 7 6 4 4 4 4 3 4 4 5 5 5 3 3 3 4 4 3 3 3 3 4 4 4 6 7 5 4 6 6
5 5 6 6 6 6 6 6 7 6 6 6 6 6 5 4 5 4 3 3 4 5 6 6 5 5 5 4 3 3 3 2 3 3 3 3 3 4 4 4 5 5 5 5
6 6 6 6 7 7 7 7 7 7 6 6 5 5 4 4 4 4 4 5 6 7 6 6 5 4 4 4 3 3 3 2 2 2 2 2 2 3 3 4 5 5 5 5
7 7 7 7 7 7 7 7 7 5 5 5 5 4 4 4 5 5 5 6 6 6 5 5 5 4 4 3 4 5 4 3 2 2 3 3 3 3 3 4 5 4 4 4
5 6 6 7 7 7 7 6 5 5 5 5 4 4 4 5 6 6 6 6 5 5 5 5 4 4 4 4 3 6 4 2 2 3 2 3 3 3 3 4 4 4 4 4
5 6 6 6 7 7 7 6 5 4 5 4 4 4 5 6 7 6 6 6 6 6 5 4 3 3 4 4 2 4 4 4 3 3 2 3 3 3 3 3 4 3 3 4
6 6 6 6 6 6 5 4 4 5 4 4 4 6 7 7 6 6 6 6 5 5 4 4 3 3 1 1 1 2 2 3 3 3 2 3 3 3 3 5 3 3 3 3
7 6 6 6 5 5 5 4 4 5 4 4 6 7 7 6 6 6 5 6 4 5 3 2 2 2 2 1 2 2 2 2 3 4 4 3 3 3 3 3 2 3 3 3
6 6 5 5 5 5 4 4 4 4 5 5 6 6 6 5 5 5 5 5 4 3 3 3 2 2 2 1 2 2 2 2 2 2 4 5 4 4 4 3 3 3 3 2
7 6 5 5 5 4 4 4 4 4 4 6 6 5 5 5 5 5 6 4 4 4 3 3 2 2 2 2 2 2 2 2 2 2 2 2 2 2 2 2 3 3 3 2
6 5 5 4 4 5 5 4 3 3 4 5 4 4 5 5 4 4 4 4 4 4 4 4 3 2 2 3 2 2 2 2 2 2 2 5 2 2 2 2 2 2 2 3
5 5 5 5 5 5 4 3 4 4 5 5 4 4 4 4 4 4 4 3 4 4 3 2 2 2 2 3 3 3 3 3 3 2 2 2 2 2 2 2 2 2 2 2
5 5 5 4 4 3 4 3 4 4 4 4 4 3 3 3 3 3 4 3 2 3 2 2 2 4 2 2 2 2 3 3 3 3 3 2 2 2 1 2 2 2 2 2
5 6 5 4 4 4 4 4 5 5 4 4 4 4 3 3 3 4 4 3 2 2 5 6 6 5 4 3 4 4 4 3 5 3 1 1 2 2 2 2 3 3 2 3